Regional Weather Roundup
Issued by NWS Wakefield, VA

Home | Current Version | Previous Version | Graphics & Text | Print | Product List | Glossary On
Versions: 1 2 3 4 5 6 7 8 9 10 11 12 13 14 15 16 17 18 19 20 21 22 23 24 25 26 27 28
000
ASUS41 KAKQ 250915
RWRAKQ

REGIONAL WEATHER ROUNDUP
NATIONAL WEATHER SERVICE WAKEFIELD VA
500 AM EDT SUN JUN 25 2017

Note: "fair" indicates few or no clouds below 12,000 feet with no
significant weather and/or obstructions to visibility. * = Denotes
station may not report precipitation (e.g., rain,snow,etc.),
thunder or fog.

VAZ042-051-052>054-056-251000-
NORTHERN VIRGINIA

CITY           SKY/WX    TMP DP  RH WIND       PRES   REMARKS
WASH NATIONAL  MOCLDY    73  61  65 N6        29.98R
DULLES         PTCLDY    65  59  81 CALM      29.98S
FORT BELVOIR   MOCLDY    64  61  89 CALM      29.98R
QUANTICO       PTCLDY    69  65  86 W5        29.99R
FREDERICKSBRG* MOCLDY    69  64  84 CALM      29.98R
STAFFORD*      CLEAR     62  62 100 CALM      30.02S
WARRENTON      MOCLDY    60  57  89 CALM      29.98S
CULPEPER*      CLEAR     61  61 100 CALM      30.00R
MANASSAS*      PTCLDY    62  61  96 S3        29.99R
LEESBURG*      PTCLDY   N/A N/A N/A CALM      29.99S
WINCHESTER     CLEAR     61  55  82 CALM      30.00F
FRONT ROYAL*   MOSUNNY   63  59  88 S5        30.00S
LURAY*         SUNNY     61  59  94 SW3       30.03R
$$

VAZ048-049-060>072-079>083-251000-
CENTRAL AND SOUTH CENTRAL VIRGINIA

CITY           SKY/WX    TMP DP  RH WIND       PRES   REMARKS
RICHMOND       PTCLDY    72  71  97 SW5       29.98R
CHESTERFIELD*  FAIR      71  69  93 W5        29.99R
PETERSBURG*    CLEAR     69  68  98 CALM      29.99S
HANOVER        PTCLDY    68  65  90 CALM      29.99R
TAPPAHANNOCK*  CLOUDY    69  69 100 CALM      29.99R
QUINTON*       FAIR      70  70 100 CALM      29.97S
CHARLOTTSVILLE CLEAR     69  60  73 W3        30.00S
GORDONSVILLE*  SUNNY     61  60  95 CALM      29.99R
ORANGE*        CLEAR     61  59  94 CALM      30.00R
LOUISA*        CLEAR     63  63 100 CALM      29.99R
BUMPASS*       FAIR      66  66 100 W8        29.99R
FARMVILLE*     PTCLDY    67  62  83 W5        30.00R
CREWE*         FAIR      67  64  87 CALM      30.00S
FORT PICKETT*  FAIR     N/A N/A N/A W5        30.00S
CHASE CITY*    FAIR      68  68  99 CALM      30.01S
CLARKSVILLE*   FAIR      70  70 100 CALM      30.01R
SOUTH HILL*    CLOUDY    71  71 100 NW3       30.06S
LAWRENCEVILLE* FAIR      70  69  96 CALM      30.00S
EMPORIA*       CLOUDY    70  70 100 CALM      30.00S
$$

VAZ088>098-251000-
SOUTHEAST VIRGINIA

CITY           SKY/WX    TMP DP  RH WIND       PRES   REMARKS
NORFOLK        PTCLDY    74  72  93 W6        29.99R
VIRGINIA BEACH PTCLDY    71  69  93 W7        29.98R
NORFOLK NAVAL  PTCLDY    74  71  91 W6        30.00R
WEST POINT*    CLEAR     73  71  92 SW5       29.99R
SALUDA*        FAIR      73  72  98 CALM      29.97R
NEWPORT NEWS   PTCLDY    73  70  90 W7        29.98S
LANGLEY AFB    PTCLDY    73  72  95 SW7       29.98R
FORT EUSTIS    CLEAR     73  70  92 W5        29.97R
WILLIAMSBURG*  CLEAR     73  73 100 CALM      29.99S
HR EXEC AP*    CLOUDY    72  68  88 CALM      29.97S
FRANKLIN*      NOT AVBL
US460-WAKEFLD  CLEAR     71  71 100 CALM      29.99S
$$

VAZ020-022-025-037-045-251000-
WEST CENTRAL AND SOUTHWEST VIRGINIA

CITY           SKY/WX    TMP DP  RH WIND       PRES   REMARKS
STAUNTON*      CLEAR     57  56  95 CALM      30.06S
WAYNESBORO*    SUNNY     58  57  97 CALM      30.05S
HOT SPRINGS VA CLEAR     59  48  67 W9        30.14F
LYNCHBURG      PTCLDY    60  58  92 CALM      30.04R
DANVILLE       FOG       67  67 100 CALM      30.04R VSB 1/4
SOUTH BOSTON*  FAIR      67  66  96 CALM      30.02R
MARTINSVILLE   PTCLDY    60  59  97 CALM      30.08R FOG
ROANOKE        CLEAR     64  58  80 CALM      30.08R
BLACKSBURG     CLEAR     58  56  93 CALM      30.14S
DUBLIN*        PTCLDY    62  53  73 SW6       30.13R
MARION*        MOCLDY    58  55  89 CALM      30.17S
HILLSVILLE*    CLEAR     62  53  72 CALM      30.13S
RICHLANDS*     CLOUDY    61  58  88 NW5       30.17R
WISE*          CLOUDY    61  54  77 CALM      30.19R
ABINGDON*      CLOUDY    64  61  90 CALM      30.15R
$$

MDZ021>025-VAZ099-100-251000-
SOUTHERN MARYLAND AND THE DELMARVA PENINSULA

CITY           SKY/WX    TMP DP  RH WIND       PRES   REMARKS
PATUXENT RIVER MOCLDY    68  63  84 SW6       29.97R
BAY BRIDGE APT CLEAR     73  63  68 NW5       29.96R
LEONARDTOWN    MOCLDY    68  63  83 CALM      29.99R
DOVER          CLEAR     68  68  99 W5        29.94R
GEORGETOWN     CLEAR     66  63  90 CALM      29.97R
EASTON         PTCLDY    69  65  88 CALM      30.00R
CAMBRIDGE      PTCLDY    64  63  94 CALM      29.96S
SALISBURY      PTCLDY    67  65  93 CALM      29.96R
OCEAN CITY     PTCLDY    67  66  97 CALM      29.96R
WALLOPS ISLAND MOCLDY    71  69  93 CALM      29.96S
ACCOMACK*      PTCLDY    74  72  91 W5        29.96S
$$

NCZ012>017-030>032-251000-
NORTH CENTRAL AND EASTERN NORTH CAROLINA

CITY           SKY/WX    TMP DP  RH WIND       PRES   REMARKS
ROANOKE RAPIDS CLOUDY    70  70 100 CALM      29.99F
RALEIGH        MOCLDY    70  69  97 CALM      30.02S
ELIZABETH CITY CLOUDY    73  73 100 SW3       29.99S
AHOSKIE*         N/A     69  69  99 CALM      30.00S
EDENTON*       CLOUDY    76  73  91 CALM      30.00S
CURRITUCK*     CLOUDY   N/A N/A N/A SW5       29.99S
KILL DEVIL HLS CLOUDY    74  74 100 W5        29.98R
MANTEO         CLOUDY    74  72  94 W5        29.99S
CAPE HATTERAS  CLOUDY    76  73  91 W8        30.00R
TARBORO*       NOT AVBL
GOLDSBORO      CLOUDY    73  73 100 W3        30.00R
WASHINGTON     CLOUDY   N/A N/A N/A CALM      30.01R
GREENVILLE     CLOUDY    73  72  94 W3        30.02S
NEW BERN       CLOUDY    75  75 100 SW5       30.02R
WILMINGTON     MOCLDY    76  75  97 SW3       30.01S
$$

VAZ048-251000-
ELSEWHERE

CITY           SKY/WX    TMP DP  RH WIND       PRES   REMARKS
HARRISBURG PA  CLEAR     66  62  87 N5        29.96R
BALTIMORE      PTCLDY    68  60  75 W5        29.96R
ANNAPOLIS      CLEAR     71  61  70 W3        29.96R
ANDREWS AFB    MOCLDY    65  60  82 CALM      29.97R
PHILADELPHIA   PTCLDY    70  60  70 N6        29.95R
HENDERSON NC   PTCLDY    67  67  97 CALM      30.01S
GREENSBORO     PTCLDY    70  70 100 CALM      30.04R
ROCKY MOUNT    CLEAR     70  70 100 S3        30.00S
$$

VAZ100-251000-
MARINE

STATION/POSITION TIME  TEMP    WIND        PRES    WAVE   SWELL
                       AIR SEA DIR/SP/G            HT/PER HT/PER
                 (UTC) (F)     (DEG/KT/KT) (MB)    (FT/S) (FT/S)
BRANDYWINE LGT   0848          320/  5/  5   N/A
CAPE MAY NJ      0848   75 71  300/  5/ 10 1013.9R
LEWES DE         0848   73 68  270/  5/  7 1014.2R
15NM E FENWICK I 0850   69 67  220/  4/  4 1014.7R   3/ 8   3/ 8
WACHAPREAGUE VA  0848   75 82  250/  4/  5 1014.3R
THOMAS POINT MD  0900   74 78  310/  7/  8   N/A
GOOSES REEF MD   0900   77 78  330/  8/ 10 1015.5
COVE POINT MD    0848   75     310/  6/  8 1015.4R
SOLOMONS ISLAND  0848   72 78  250/  5/  5   N/A
BISHOPS HEAD MD  0848   76 82  330/  5/  5 1014.7R
PINEY POINT MD   0848          340/  9/ 10   N/A
POTOMAC MD       0900   77 78  310/  8/ 10 1014.0    0
CAMBRIDGE MD     0848   71 81              1015.1S
LEWISETTA VA     0848   74 79  330/  4/  5 1014.8R
RAPPAHANNOCK LGT 0848          250/ 14/ 16 1015.1R
STINGRAY PT      0900   76 78  290/ 10/ 12 1014.6    1
YORK RVR RNG VA  0848   75     270/ 13/ 15 1015.0R
YORKTOWN VA      0848   74 78  250/  7/ 10 1014.6R
JAMESTOWN VA     0900   74 83  270/  4/  6   N/A
DOMINION TERM VA 0848   74     290/  6/  7 1015.4R
KIPTOPEKE VA     0848      75  290/ 13/ 16   N/A
CHES BAY BRIDGE  0848   74 75  280/ 15/ 17 1015.0R
CAPE HENRY VA    0848   73     250/  6/  9   N/A
WILLOUBY STN VA  0848   74     250/ 10/ 11 1015.1R
S CRANEY ISL VA  0848   72     290/  3/  7 1015.2R
CAPE HENRY BUOY  0830      72                N/A     2/ 6
1ST LANDING BUOY 0900   75 74              1015.4    1/ 2
CAPE CHARLES BUO 0851      66                N/A     2/ 8
64NM E OF VA BCH 0850   72 72  250/  6/  8 1015.4R   4/ 7   3/ 7
DUCK PIER NC     0848   76 60  250/  8/ 12 1014.9R
44100 DUCK FRF   0805      71                N/A     2/ 8
OREGON INLET NC  0848          250/  8/ 12   N/A
HATTERAS NC      0848   75 79  240/  8/ 12 1015.4R
DIAMOND SHLS NC  0850   78 80  240/ 21/ 25 1015.2R   6/ 6
CAPE LOOKOUT NC  0800   78     230/  9/ 13 1015.7S
$$




USA.gov is the U.S. government's official web portal to all federal, state and local government web resources and services.